This is the latest recevied weather packets stored in our database for station/object HF3P-11. If no packets are shown the sender has not sent any weather packets the latest 10 day(s).
| Time | Temp. | Humidity | Pressure | Rain* | Wind** | Luminosity | Snow |
|---|---|---|---|---|---|---|---|
| 1777701895 | 18.89° C | 49% | 1017.2 hPa | 0 mm | - | - | - |
| 1777701595 | 18.89° C | 49% | 1017.1 hPa | 0 mm | - | - | - |
| 1777701302 | 18.89° C | 50% | 1017.1 hPa | 0 mm | - | - | - |
| 1777700995 | 18.89° C | 50% | 1017.2 hPa | 0 mm | - | - | - |
| 1777700703 | 18.89° C | 50% | 1017.3 hPa | 0 mm | - | - | - |
| 1777700395 | 18.33° C | 51% | 1017.1 hPa | 0 mm | - | - | - |
| 1777700103 | 18.33° C | 51% | 1017.2 hPa | 0 mm | - | - | - |
| 1777699795 | 18.89° C | 51% | 1017.2 hPa | 0 mm | - | - | - |
| 1777699502 | 19.44° C | 52% | 1017.3 hPa | 0 mm | - | - | - |
| 1777699195 | 19.44° C | 54% | 1017.2 hPa | 0 mm | - | - | - |
| 1777698903 | 18.33° C | 57% | 1017.1 hPa | 0 mm | - | - | - |
| 1777698595 | 17.22° C | 60% | 1017.1 hPa | 0 mm | - | - | - |
| 1777698303 | 15.56° C | 63% | 1017.2 hPa | 0 mm | - | - | - |
| 1777697995 | 15.56° C | 64% | 1017.3 hPa | 0 mm | - | - | - |
| 1777697704 | 15.56° C | 68% | 1017.3 hPa | 0 mm | - | - | - |
| 1777697395 | 14.44° C | 70% | 1017.1 hPa | 0 mm | - | - | - |
| 1777697102 | 13.89° C | 73% | 1017.3 hPa | 0 mm | - | - | - |
| 1777696794 | 12.78° C | 76% | 1017.3 hPa | 0 mm | - | - | - |
| 1777696495 | 11.11° C | 79% | 1017.1 hPa | 0 mm | - | - | - |
| 1777696204 | 10° C | 79% | 1017 hPa | 0 mm | - | - | - |
| 1777695903 | 9.44° C | 79% | 1017.1 hPa | 0 mm | - | - | - |
| 1777695603 | 8.89° C | 80% | 1017 hPa | 0 mm | - | - | - |
| 1777695295 | 8.33° C | 82% | 1017.1 hPa | 0 mm | - | - | - |
| 1777695002 | 7.78° C | 83% | 1017.2 hPa | 0 mm | - | - | - |
| 1777694696 | 6.11° C | 82% | 1017.1 hPa | 0 mm | - | - | - |
* Rain latest hour (hover to see other rain measurements)
** Current wind speed in m/s (hover to see current wind gust speed)